7 * 24
多渠道服务支持
STARLINK-32334是美国太空探索技术公司(SpaceX)星链(Starlink)星座中的一颗卫星,于2024年11月18日发射升空。星链项目旨在构建覆盖全球的低轨卫星互联网系统,可为全球偏远地区、海洋等网络覆盖盲区提供高速网络服务,满足流媒体播放、视频通话、在线游戏等日常互联网使用需求。作为第二代星链卫星,它的加入进一步完善了星链星座的全球覆盖能力与服务稳定性,推动低轨卫星互联网的部署进程。
美国
(US)
| 数据来源 | 国际轨道数据 |
| 星历时间: | 2026-09-03T20:17:48+0800 17小时前 查看轨道信息 |
| 半长轴: | 6840.823km |
| 偏心率: | 0.0002547 |
| 轨道倾角: | 53.160° |
| 近地点辐角 | 89.760° |
| 升交点赤经 | 61.206° |
| 平近点角 | 270.369° |
| 近地点: | 460.943km |
| 远地点: | 464.429km |
| 周期: | 93.847分钟 |
| 每日圈数: | 15.34406 |